Location: Chiroubles
(46.1812°N, 4.6660°E)
Time: 06:45:37
(UTC+00:00)

Transit 4A - Pass Details

Date: 05 December 2020
Orbit: 864 x 980 km, 66.8° (Epoch: 25 January)

Event Time Altitude Azimuth Distance (km) Brightness Sun altitude
Rises 14:12:58 0° 328° (NNW) 3,685 10.8 12.3°
Reaches altitude 10° 14:15:38 10° 332° (NNW) 2,726 10.2 12.0°
Maximum altitude 14:21:55 58° 51° (NE) 1,112 8.2 11.3°
Drops below altitude 10° 14:28:00 10° 130° (SE) 2,647 10.3 10.7°
Sets 14:30:33 0° 135° (SE) 3,571 11.0 10.4°
